Year,Month,Day,Hour,Minute,Value (Times are PST for temperature in C)
2021,04,16,00,00,10.10
2021,04,16,00,01,10.10
2021,04,16,00,02,10.00
2021,04,16,00,03,10.00
2021,04,16,00,04,10.00
2021,04,16,00,05,10.00
2021,04,16,00,06,9.90
2021,04,16,00,07,9.90
2021,04,16,00,08,9.90
2021,04,16,00,09,9.90
2021,04,16,00,10,9.90
2021,04,16,00,11,9.90
2021,04,16,00,12,9.90
2021,04,16,00,13,9.90
2021,04,16,00,14,9.90
2021,04,16,00,15,9.90
2021,04,16,00,16,9.90
2021,04,16,00,17,9.80
2021,04,16,00,18,9.80
2021,04,16,00,19,9.80
2021,04,16,00,20,9.80
2021,04,16,00,21,9.80
2021,04,16,00,22,9.80
2021,04,16,00,23,9.80
2021,04,16,00,24,9.80
2021,04,16,00,25,9.80
2021,04,16,00,26,9.80
2021,04,16,00,27,9.80
2021,04,16,00,28,9.80
2021,04,16,00,29,9.80
2021,04,16,00,30,9.80
2021,04,16,00,31,9.80
2021,04,16,00,32,9.80
2021,04,16,00,33,9.80
2021,04,16,00,34,9.80
2021,04,16,00,35,9.80
2021,04,16,00,36,9.80
2021,04,16,00,37,9.80
2021,04,16,00,38,9.80
2021,04,16,00,39,9.80
2021,04,16,00,40,9.80
2021,04,16,00,41,9.80
2021,04,16,00,42,9.80
2021,04,16,00,43,9.80
2021,04,16,00,44,9.80
2021,04,16,00,45,9.80
2021,04,16,00,46,9.80
2021,04,16,00,47,9.70
2021,04,16,00,48,9.70
2021,04,16,00,49,9.70
2021,04,16,00,50,9.70
2021,04,16,00,51,9.70
2021,04,16,00,52,9.70
2021,04,16,00,53,9.70
2021,04,16,00,54,9.60
2021,04,16,00,55,9.60
2021,04,16,00,56,9.60
2021,04,16,00,57,9.60
2021,04,16,00,58,9.60
2021,04,16,00,59,9.60
2021,04,16,01,00,9.50
2021,04,16,01,01,9.50
2021,04,16,01,02,9.50
2021,04,16,01,03,9.50
2021,04,16,01,04,9.40
2021,04,16,01,05,9.40
2021,04,16,01,06,9.40
2021,04,16,01,07,9.40
2021,04,16,01,08,9.40
2021,04,16,01,09,9.30
2021,04,16,01,10,9.30
2021,04,16,01,11,9.30
2021,04,16,01,12,9.30
2021,04,16,01,13,9.30
2021,04,16,01,14,9.30
2021,04,16,01,15,9.20
2021,04,16,01,16,9.20
2021,04,16,01,17,9.20
2021,04,16,01,18,9.20
2021,04,16,01,19,9.20
2021,04,16,01,20,9.20
2021,04,16,01,21,9.10
2021,04,16,01,22,9.10
2021,04,16,01,23,9.10
2021,04,16,01,24,9.10
2021,04,16,01,25,9.10
2021,04,16,01,26,9.10
2021,04,16,01,27,9.10
2021,04,16,01,28,9.10
2021,04,16,01,29,9.00
2021,04,16,01,30,9.00
2021,04,16,01,31,9.00
2021,04,16,01,32,9.00
2021,04,16,01,33,9.00
2021,04,16,01,34,8.90
2021,04,16,01,35,8.90
2021,04,16,01,36,8.90
2021,04,16,01,37,8.90
2021,04,16,01,38,8.90
2021,04,16,01,39,8.80
2021,04,16,01,40,8.80
2021,04,16,01,41,8.80
2021,04,16,01,42,8.80
2021,04,16,01,43,8.70
2021,04,16,01,44,8.70
2021,04,16,01,45,8.70
2021,04,16,01,46,8.70
2021,04,16,01,47,8.70
2021,04,16,01,48,8.70
2021,04,16,01,49,8.70
2021,04,16,01,50,8.70
2021,04,16,01,51,8.70
2021,04,16,01,52,8.60
2021,04,16,01,53,8.60
2021,04,16,01,54,8.60
2021,04,16,01,55,8.60
2021,04,16,01,56,8.60
2021,04,16,01,57,8.60
2021,04,16,01,58,8.60
2021,04,16,01,59,8.60
2021,04,16,02,00,8.60
2021,04,16,02,01,8.60
2021,04,16,02,02,8.70
2021,04,16,02,03,8.70
2021,04,16,02,04,8.70
2021,04,16,02,05,8.70
2021,04,16,02,06,8.70
2021,04,16,02,07,8.70
2021,04,16,02,08,8.70
2021,04,16,02,09,8.70
2021,04,16,02,10,8.70
2021,04,16,02,11,8.70
2021,04,16,02,12,8.70
2021,04,16,02,13,8.70
2021,04,16,02,14,8.60
2021,04,16,02,15,8.70
2021,04,16,02,16,8.60
2021,04,16,02,17,8.60
2021,04,16,02,18,8.60
2021,04,16,02,19,8.60
2021,04,16,02,20,8.60
2021,04,16,02,21,8.50
2021,04,16,02,22,8.50
2021,04,16,02,23,8.50
2021,04,16,02,24,8.40
2021,04,16,02,25,8.40
2021,04,16,02,26,8.40
2021,04,16,02,27,8.40
2021,04,16,02,28,8.30
2021,04,16,02,29,8.30
2021,04,16,02,30,8.30
2021,04,16,02,31,8.30
2021,04,16,02,32,8.30
2021,04,16,02,33,8.30
2021,04,16,02,34,8.30
2021,04,16,02,35,8.20
2021,04,16,02,36,8.20
2021,04,16,02,37,8.20
2021,04,16,02,38,8.20
2021,04,16,02,39,8.10
2021,04,16,02,40,8.10
2021,04,16,02,41,8.10
2021,04,16,02,42,8.10
2021,04,16,02,43,8.10
2021,04,16,02,44,8.10
2021,04,16,02,45,8.10
2021,04,16,02,46,8.10
2021,04,16,02,47,8.00
2021,04,16,02,48,8.00
2021,04,16,02,49,7.90
2021,04,16,02,50,7.90
2021,04,16,02,51,7.90
2021,04,16,02,52,7.90
2021,04,16,02,53,7.80
2021,04,16,02,54,7.80
2021,04,16,02,55,7.80
2021,04,16,02,56,7.80
2021,04,16,02,57,7.80
2021,04,16,02,58,7.80
2021,04,16,02,59,7.80
2021,04,16,03,00,7.80
2021,04,16,03,01,7.80
2021,04,16,03,02,7.80
2021,04,16,03,03,7.80
2021,04,16,03,04,7.80
2021,04,16,03,05,7.80
2021,04,16,03,06,7.80
2021,04,16,03,07,7.80
2021,04,16,03,08,7.80
2021,04,16,03,09,7.80
2021,04,16,03,10,7.70
2021,04,16,03,11,7.70
2021,04,16,03,12,7.70
2021,04,16,03,13,7.70
2021,04,16,03,14,7.70
2021,04,16,03,15,7.70
2021,04,16,03,16,7.70
2021,04,16,03,17,7.70
2021,04,16,03,18,7.70
2021,04,16,03,19,7.70
2021,04,16,03,20,7.70
2021,04,16,03,21,7.70
2021,04,16,03,22,7.70
2021,04,16,03,23,7.70
2021,04,16,03,24,7.70
2021,04,16,03,25,7.70
2021,04,16,03,26,7.70
2021,04,16,03,27,7.60
2021,04,16,03,28,7.60
2021,04,16,03,29,7.60
2021,04,16,03,30,7.50
2021,04,16,03,31,7.50
2021,04,16,03,32,7.40
2021,04,16,03,33,7.40
2021,04,16,03,34,7.40
2021,04,16,03,35,7.40
2021,04,16,03,36,7.40
2021,04,16,03,37,7.40
2021,04,16,03,38,7.40
2021,04,16,03,39,7.40
2021,04,16,03,40,7.40
2021,04,16,03,41,7.40
2021,04,16,03,42,7.40
2021,04,16,03,43,7.40
2021,04,16,03,44,7.30
2021,04,16,03,45,7.30
2021,04,16,03,46,7.30
2021,04,16,03,47,7.30
2021,04,16,03,48,7.30
2021,04,16,03,49,7.30
2021,04,16,03,50,7.30
2021,04,16,03,51,7.20
2021,04,16,03,52,7.20
2021,04,16,03,53,7.20
2021,04,16,03,54,7.20
2021,04,16,03,55,7.20
2021,04,16,03,56,7.20
2021,04,16,03,57,7.20
2021,04,16,03,58,7.30
2021,04,16,03,59,7.30
2021,04,16,04,00,7.30
2021,04,16,04,01,7.30
2021,04,16,04,02,7.30
2021,04,16,04,03,7.20
2021,04,16,04,04,7.20
2021,04,16,04,05,7.20
2021,04,16,04,06,7.20
2021,04,16,04,07,7.20
2021,04,16,04,08,7.20
2021,04,16,04,09,7.20
2021,04,16,04,10,7.20
2021,04,16,04,11,7.20
2021,04,16,04,12,7.10
2021,04,16,04,13,7.10
2021,04,16,04,14,7.10
2021,04,16,04,15,7.10
2021,04,16,04,16,7.10
2021,04,16,04,17,7.10
2021,04,16,04,18,7.10
2021,04,16,04,19,7.10
2021,04,16,04,20,7.10
2021,04,16,04,21,7.00
2021,04,16,04,22,7.00
2021,04,16,04,23,7.00
2021,04,16,04,24,7.00
2021,04,16,04,25,6.90
2021,04,16,04,26,6.90
2021,04,16,04,27,6.90
2021,04,16,04,28,6.90
2021,04,16,04,29,6.90
2021,04,16,04,30,6.90
2021,04,16,04,31,6.80
2021,04,16,04,32,6.90
2021,04,16,04,33,6.90
2021,04,16,04,34,6.90
2021,04,16,04,35,6.80
2021,04,16,04,36,6.80
2021,04,16,04,37,6.80
2021,04,16,04,38,6.80
2021,04,16,04,39,6.80
2021,04,16,04,40,6.80
2021,04,16,04,41,6.80
2021,04,16,04,42,6.80
2021,04,16,04,43,6.80
2021,04,16,04,44,6.80
2021,04,16,04,45,6.70
2021,04,16,04,46,6.70
2021,04,16,04,47,6.70
2021,04,16,04,48,6.60
2021,04,16,04,49,6.60
2021,04,16,04,50,6.60
2021,04,16,04,51,6.60
2021,04,16,04,52,6.50
2021,04,16,04,53,6.50
2021,04,16,04,54,6.50
2021,04,16,04,55,6.40
2021,04,16,04,56,6.40
2021,04,16,04,57,6.40
2021,04,16,04,58,6.40
2021,04,16,04,59,6.40
2021,04,16,05,00,6.40
2021,04,16,05,01,6.40
2021,04,16,05,02,6.30
2021,04,16,05,03,6.30
2021,04,16,05,04,6.30
2021,04,16,05,05,6.30
2021,04,16,05,06,6.30
2021,04,16,05,07,6.30
2021,04,16,05,08,6.30
2021,04,16,05,09,6.30
2021,04,16,05,10,6.30
2021,04,16,05,11,6.30
2021,04,16,05,12,6.30
2021,04,16,05,13,6.30
2021,04,16,05,14,6.30
2021,04,16,05,15,6.30
2021,04,16,05,16,6.30
2021,04,16,05,17,6.30
2021,04,16,05,18,6.30
2021,04,16,05,19,6.30
2021,04,16,05,20,6.30
2021,04,16,05,21,6.30
2021,04,16,05,22,6.30
2021,04,16,05,23,6.30
2021,04,16,05,24,6.30
2021,04,16,05,25,6.30
2021,04,16,05,26,6.30
2021,04,16,05,27,6.30
2021,04,16,05,28,6.30
2021,04,16,05,29,6.30
2021,04,16,05,30,6.30
2021,04,16,05,31,6.30
2021,04,16,05,32,6.30
2021,04,16,05,33,6.30
2021,04,16,05,34,6.30
2021,04,16,05,35,6.30
2021,04,16,05,36,6.30
2021,04,16,05,37,6.30
2021,04,16,05,38,6.30
2021,04,16,05,39,6.30
2021,04,16,05,40,6.20
2021,04,16,05,41,6.20
2021,04,16,05,42,6.20
2021,04,16,05,43,6.20
2021,04,16,05,44,6.20
2021,04,16,05,45,6.20
2021,04,16,05,46,6.20
2021,04,16,05,47,6.20
2021,04,16,05,48,6.20
2021,04,16,05,49,6.20
2021,04,16,05,50,6.30
2021,04,16,05,51,6.30
2021,04,16,05,52,6.30
2021,04,16,05,53,6.30
2021,04,16,05,54,6.30
2021,04,16,05,55,6.20
2021,04,16,05,56,6.20
2021,04,16,05,57,6.20
2021,04,16,05,58,6.10
2021,04,16,05,59,6.10
2021,04,16,06,00,6.10
2021,04,16,06,01,6.10
2021,04,16,06,02,6.00
2021,04,16,06,03,6.00
2021,04,16,06,04,6.00
2021,04,16,06,05,6.10
2021,04,16,06,06,6.10
2021,04,16,06,07,6.10
2021,04,16,06,08,6.10
2021,04,16,06,09,6.10
2021,04,16,06,10,6.10
2021,04,16,06,11,6.10
2021,04,16,06,12,6.10
2021,04,16,06,13,6.10
2021,04,16,06,14,6.20
2021,04,16,06,15,6.20
2021,04,16,06,16,6.20
2021,04,16,06,17,6.20
2021,04,16,06,18,6.20
2021,04,16,06,19,6.30
2021,04,16,06,20,6.30
2021,04,16,06,21,6.30
2021,04,16,06,22,6.30
2021,04,16,06,23,6.40
2021,04,16,06,24,6.40
2021,04,16,06,25,6.50
2021,04,16,06,26,6.50
2021,04,16,06,27,6.50
2021,04,16,06,28,6.60
2021,04,16,06,29,6.60
2021,04,16,06,30,6.60
2021,04,16,06,31,6.60
2021,04,16,06,32,6.60
2021,04,16,06,33,6.60
2021,04,16,06,34,6.60
2021,04,16,06,35,6.60
2021,04,16,06,36,6.50
2021,04,16,06,37,6.50
2021,04,16,06,38,6.50
2021,04,16,06,39,6.50
2021,04,16,06,40,6.50
2021,04,16,06,41,6.50
2021,04,16,06,42,6.60
2021,04,16,06,43,6.60
2021,04,16,06,44,6.60
2021,04,16,06,45,6.50
2021,04,16,06,46,6.50
2021,04,16,06,47,6.50
2021,04,16,06,48,6.40
2021,04,16,06,49,6.40
2021,04,16,06,50,6.40
2021,04,16,06,51,6.40
2021,04,16,06,52,6.40
2021,04,16,06,53,6.40
2021,04,16,06,54,6.50
2021,04,16,06,55,6.50
2021,04,16,06,56,6.50
2021,04,16,06,57,6.50
2021,04,16,06,58,6.60
2021,04,16,06,59,6.60
2021,04,16,07,00,6.60
2021,04,16,07,01,6.60
2021,04,16,07,02,6.70
2021,04,16,07,03,6.70
2021,04,16,07,04,6.70
2021,04,16,07,05,6.70
2021,04,16,07,06,6.80
2021,04,16,07,07,6.80
2021,04,16,07,08,6.80
2021,04,16,07,09,6.90
2021,04,16,07,10,6.90
2021,04,16,07,11,6.90
2021,04,16,07,12,7.00
2021,04,16,07,13,7.10
2021,04,16,07,14,7.10
2021,04,16,07,15,7.20
2021,04,16,07,16,7.20
2021,04,16,07,17,7.30
2021,04,16,07,18,7.30
2021,04,16,07,19,7.40
2021,04,16,07,20,7.40
2021,04,16,07,21,7.50
2021,04,16,07,22,7.50
2021,04,16,07,23,7.60
2021,04,16,07,24,7.60
2021,04,16,07,25,7.70
2021,04,16,07,26,7.70
2021,04,16,07,27,7.80
2021,04,16,07,28,7.80
2021,04,16,07,29,7.90
2021,04,16,07,30,7.90
2021,04,16,07,31,7.90
2021,04,16,07,32,8.00
2021,04,16,07,33,8.00
2021,04,16,07,34,8.10
2021,04,16,07,35,8.20
2021,04,16,07,36,8.20
2021,04,16,07,37,8.30
2021,04,16,07,38,8.40
2021,04,16,07,39,8.50
2021,04,16,07,40,8.50
2021,04,16,07,41,8.60
2021,04,16,07,42,8.60
2021,04,16,07,43,8.70
2021,04,16,07,44,8.70
2021,04,16,07,45,8.80
2021,04,16,07,46,8.90
2021,04,16,07,47,8.90
2021,04,16,07,48,9.00
2021,04,16,07,49,9.10
2021,04,16,07,50,9.20
2021,04,16,07,51,9.30
2021,04,16,07,52,9.40
2021,04,16,07,53,9.50
2021,04,16,07,54,9.60
2021,04,16,07,55,9.70
2021,04,16,07,56,9.80
2021,04,16,07,57,9.90
2021,04,16,07,58,10.00
2021,04,16,07,59,10.20
2021,04,16,08,00,10.30
2021,04,16,08,01,10.40
2021,04,16,08,02,10.60
2021,04,16,08,03,10.70
2021,04,16,08,04,11.00
2021,04,16,08,05,11.20
2021,04,16,08,06,11.30
2021,04,16,08,07,11.50
2021,04,16,08,08,11.70
2021,04,16,08,09,11.90
2021,04,16,08,10,12.00
2021,04,16,08,11,12.20
2021,04,16,08,12,12.30
2021,04,16,08,13,12.40
2021,04,16,08,14,12.60
2021,04,16,08,15,12.70
2021,04,16,08,16,12.80
2021,04,16,08,17,13.00
2021,04,16,08,18,13.10
2021,04,16,08,19,13.20
2021,04,16,08,20,13.30
2021,04,16,08,21,13.40
2021,04,16,08,22,13.50
2021,04,16,08,23,13.60
2021,04,16,08,24,13.70
2021,04,16,08,25,13.80
2021,04,16,08,26,13.80
2021,04,16,08,27,13.90
2021,04,16,08,28,14.00
2021,04,16,08,29,14.10
2021,04,16,08,30,14.10
2021,04,16,08,31,14.20
2021,04,16,08,32,14.30
2021,04,16,08,33,14.30
2021,04,16,08,34,14.40
2021,04,16,08,35,14.40
2021,04,16,08,36,14.50
2021,04,16,08,37,14.60
2021,04,16,08,38,14.60
2021,04,16,08,39,14.70
2021,04,16,08,40,14.70
2021,04,16,08,41,14.70
2021,04,16,08,42,14.80
2021,04,16,08,43,14.80
2021,04,16,08,44,14.80
2021,04,16,08,45,14.80
2021,04,16,08,46,14.80
2021,04,16,08,47,14.80
2021,04,16,08,48,14.90
2021,04,16,08,49,14.90
2021,04,16,08,50,14.90
2021,04,16,08,51,15.00
2021,04,16,08,52,15.00
2021,04,16,08,53,15.00
2021,04,16,08,54,15.00
2021,04,16,08,55,15.00
2021,04,16,08,56,15.10
2021,04,16,08,57,15.00
2021,04,16,08,58,15.00
2021,04,16,08,59,15.00
2021,04,16,09,00,15.10
2021,04,16,09,01,15.10
2021,04,16,09,02,15.00
2021,04,16,09,03,15.00
2021,04,16,09,04,15.00
2021,04,16,09,05,15.00
2021,04,16,09,06,15.00
2021,04,16,09,07,15.00
2021,04,16,09,08,15.10
2021,04,16,09,09,15.10
2021,04,16,09,10,15.10
2021,04,16,09,11,15.10
2021,04,16,09,12,15.10
2021,04,16,09,13,15.10
2021,04,16,09,14,15.10
2021,04,16,09,15,15.10
2021,04,16,09,16,15.10
2021,04,16,09,17,15.20
2021,04,16,09,18,15.20
2021,04,16,09,19,15.30
2021,04,16,09,20,15.30
2021,04,16,09,21,15.40
2021,04,16,09,22,15.40
2021,04,16,09,23,15.40
2021,04,16,09,24,15.40
2021,04,16,09,25,15.40
2021,04,16,09,26,15.40
2021,04,16,09,27,15.50
2021,04,16,09,28,15.50
2021,04,16,09,29,15.60
2021,04,16,09,30,15.60
2021,04,16,09,31,15.60
2021,04,16,09,32,15.60
2021,04,16,09,33,15.60
2021,04,16,09,34,15.60
2021,04,16,09,35,15.70
2021,04,16,09,36,15.70
2021,04,16,09,37,15.70
2021,04,16,09,38,15.80
2021,04,16,09,39,15.80
2021,04,16,09,40,15.90
2021,04,16,09,41,15.90
2021,04,16,09,42,15.90
2021,04,16,09,43,16.00
2021,04,16,09,44,16.00
2021,04,16,09,45,16.10
2021,04,16,09,46,16.10
2021,04,16,09,47,16.10
2021,04,16,09,48,16.10
2021,04,16,09,49,16.20
2021,04,16,09,50,16.20
2021,04,16,09,51,16.30
2021,04,16,09,52,16.30
2021,04,16,09,53,16.30
2021,04,16,09,54,16.30
2021,04,16,09,55,16.30
2021,04,16,09,56,16.30
2021,04,16,09,57,16.40
2021,04,16,09,58,16.40
2021,04,16,09,59,16.50
2021,04,16,10,00,16.60
2021,04,16,10,01,16.70
2021,04,16,10,02,16.80
2021,04,16,10,03,16.90
2021,04,16,10,04,17.00
2021,04,16,10,05,17.10
2021,04,16,10,06,17.20
2021,04,16,10,07,17.20
2021,04,16,10,08,17.20
2021,04,16,10,09,17.20
2021,04,16,10,10,17.20
2021,04,16,10,11,17.30
2021,04,16,10,12,17.30
2021,04,16,10,13,17.30
2021,04,16,10,14,17.30
2021,04,16,10,15,17.30
2021,04,16,10,16,17.40
2021,04,16,10,17,17.40
2021,04,16,10,18,17.40
2021,04,16,10,19,17.50
2021,04,16,10,20,17.60
2021,04,16,10,21,17.60
2021,04,16,10,22,17.60
2021,04,16,10,23,17.60
2021,04,16,10,24,17.60
2021,04,16,10,25,17.50
2021,04,16,10,26,17.50
2021,04,16,10,27,17.50
2021,04,16,10,28,17.50
2021,04,16,10,29,17.50
2021,04,16,10,30,17.50
2021,04,16,10,31,17.50
2021,04,16,10,32,17.60
2021,04,16,10,33,17.70
2021,04,16,10,34,17.70
2021,04,16,10,35,17.80
2021,04,16,10,36,17.80
2021,04,16,10,37,17.80
2021,04,16,10,38,17.80
2021,04,16,10,39,17.80
2021,04,16,10,40,17.90
2021,04,16,10,41,17.90
2021,04,16,10,42,17.90
2021,04,16,10,43,17.90
2021,04,16,10,44,18.00
2021,04,16,10,45,18.00
2021,04,16,10,46,18.00
2021,04,16,10,47,18.00
2021,04,16,10,48,18.00
2021,04,16,10,49,17.90
2021,04,16,10,50,17.90
2021,04,16,10,51,17.90
2021,04,16,10,52,18.00
2021,04,16,10,53,18.00
2021,04,16,10,54,18.00
2021,04,16,10,55,18.10
2021,04,16,10,56,18.10
2021,04,16,10,57,18.10
2021,04,16,10,58,18.20
2021,04,16,10,59,18.20
2021,04,16,11,00,18.20
2021,04,16,11,01,18.30
2021,04,16,11,02,18.30
2021,04,16,11,03,18.30
2021,04,16,11,04,18.40
2021,04,16,11,05,18.40
2021,04,16,11,06,18.40
2021,04,16,11,07,18.50
2021,04,16,11,08,18.50
2021,04,16,11,09,18.50
2021,04,16,11,10,18.60
2021,04,16,11,11,18.70
2021,04,16,11,12,18.80
2021,04,16,11,13,18.80
2021,04,16,11,14,18.90
2021,04,16,11,15,18.90
2021,04,16,11,16,18.90
2021,04,16,11,17,18.80
2021,04,16,11,18,18.80
2021,04,16,11,19,18.80
2021,04,16,11,20,18.80
2021,04,16,11,21,18.80
2021,04,16,11,22,18.80
2021,04,16,11,23,18.80
2021,04,16,11,24,18.80
2021,04,16,11,25,18.80
2021,04,16,11,26,18.80
2021,04,16,11,27,18.80
2021,04,16,11,28,18.80
2021,04,16,11,29,18.80
2021,04,16,11,30,18.90
2021,04,16,11,31,18.90
2021,04,16,11,32,19.00
2021,04,16,11,33,19.10
2021,04,16,11,34,19.20
2021,04,16,11,35,19.30
2021,04,16,11,36,19.30
2021,04,16,11,37,19.30
2021,04,16,11,38,19.30
2021,04,16,11,39,19.20
2021,04,16,11,40,19.20
2021,04,16,11,41,19.30
2021,04,16,11,42,19.30
2021,04,16,11,43,19.30
2021,04,16,11,44,19.40
2021,04,16,11,45,19.40
2021,04,16,11,46,19.40
2021,04,16,11,47,19.40
2021,04,16,11,48,19.40
2021,04,16,11,49,19.30
2021,04,16,11,50,19.30
2021,04,16,11,51,19.20
2021,04,16,11,52,19.20
2021,04,16,11,53,19.20
2021,04,16,11,54,19.20
2021,04,16,11,55,19.20
2021,04,16,11,56,19.20
2021,04,16,11,57,19.20
2021,04,16,11,58,19.20
2021,04,16,11,59,19.10
2021,04,16,12,00,19.20
2021,04,16,12,01,19.20
2021,04,16,12,02,19.20
2021,04,16,12,03,19.20
2021,04,16,12,04,19.20
2021,04,16,12,05,19.20
2021,04,16,12,06,19.30
2021,04,16,12,07,19.40
2021,04,16,12,08,19.40
2021,04,16,12,09,19.40
2021,04,16,12,10,19.40
2021,04,16,12,11,19.40
2021,04,16,12,12,19.40
2021,04,16,12,13,19.30
2021,04,16,12,14,19.30
2021,04,16,12,15,19.30
2021,04,16,12,16,19.30
2021,04,16,12,17,19.30
2021,04,16,12,18,19.30
2021,04,16,12,19,19.30
2021,04,16,12,20,19.30
2021,04,16,12,21,19.30
2021,04,16,12,22,19.30
2021,04,16,12,23,19.30
2021,04,16,12,24,19.30
2021,04,16,12,25,19.30
2021,04,16,12,26,19.40
2021,04,16,12,27,19.40
2021,04,16,12,28,19.40
2021,04,16,12,29,19.50
2021,04,16,12,30,19.50
2021,04,16,12,31,19.50
2021,04,16,12,32,19.50
2021,04,16,12,33,19.60
2021,04,16,12,34,19.60
2021,04,16,12,35,19.60
2021,04,16,12,36,19.60
2021,04,16,12,37,19.60
2021,04,16,12,38,19.60
2021,04,16,12,39,19.70
2021,04,16,12,40,19.70
2021,04,16,12,41,19.70
2021,04,16,12,42,19.70
2021,04,16,12,43,19.80
2021,04,16,12,44,19.80
2021,04,16,12,45,19.90
2021,04,16,12,46,20.00
2021,04,16,12,47,20.00
2021,04,16,12,48,19.90
2021,04,16,12,49,19.90
2021,04,16,12,50,19.90
2021,04,16,12,51,19.90
2021,04,16,12,52,19.90
2021,04,16,12,53,19.90
2021,04,16,12,54,20.00
2021,04,16,12,55,20.10
2021,04,16,12,56,20.10
2021,04,16,12,57,20.20
2021,04,16,12,58,20.30
2021,04,16,12,59,20.40
2021,04,16,13,00,20.40
2021,04,16,13,01,20.50
2021,04,16,13,02,20.50
2021,04,16,13,03,20.60
2021,04,16,13,04,20.60
2021,04,16,13,05,20.60
2021,04,16,13,06,20.60
2021,04,16,13,07,20.50
2021,04,16,13,08,20.50
2021,04,16,13,09,20.40
2021,04,16,13,10,20.50
2021,04,16,13,11,20.50
2021,04,16,13,12,20.60
2021,04,16,13,13,20.60
2021,04,16,13,14,20.70
2021,04,16,13,15,20.70
2021,04,16,13,16,20.70
2021,04,16,13,17,20.80
2021,04,16,13,18,20.80
2021,04,16,13,19,20.80
2021,04,16,13,20,20.90
2021,04,16,13,21,20.90
2021,04,16,13,22,21.00
2021,04,16,13,23,21.00
2021,04,16,13,24,21.10
2021,04,16,13,25,21.20
2021,04,16,13,26,21.30
2021,04,16,13,27,21.30
2021,04,16,13,28,21.30
2021,04,16,13,29,21.30
2021,04,16,13,30,21.30
2021,04,16,13,31,21.30
2021,04,16,13,32,21.30
2021,04,16,13,33,21.30
2021,04,16,13,34,21.30
2021,04,16,13,35,21.30
2021,04,16,13,36,21.30
2021,04,16,13,37,21.40
2021,04,16,13,38,21.40
2021,04,16,13,39,21.40
2021,04,16,13,40,21.40
2021,04,16,13,41,21.40
2021,04,16,13,42,21.20
2021,04,16,13,43,21.10
2021,04,16,13,44,21.00
2021,04,16,13,45,20.90
2021,04,16,13,46,20.90
2021,04,16,13,47,20.90
2021,04,16,13,48,21.00
2021,04,16,13,49,21.10
2021,04,16,13,50,21.20
2021,04,16,13,51,21.20
2021,04,16,13,52,21.30
2021,04,16,13,53,21.30
2021,04,16,13,54,21.50
2021,04,16,13,55,21.60
2021,04,16,13,56,21.70
2021,04,16,13,57,21.80
2021,04,16,13,58,21.80
2021,04,16,13,59,21.80
2021,04,16,14,00,21.80
2021,04,16,14,01,21.70
2021,04,16,14,02,21.70
2021,04,16,14,03,21.70
2021,04,16,14,04,21.60
2021,04,16,14,05,21.50
2021,04,16,14,06,21.30
2021,04,16,14,07,21.30
2021,04,16,14,08,21.20
2021,04,16,14,09,21.10
2021,04,16,14,10,21.10
2021,04,16,14,11,21.00
2021,04,16,14,12,20.90
2021,04,16,14,13,21.00
2021,04,16,14,14,21.00
2021,04,16,14,15,21.00
2021,04,16,14,16,21.10
2021,04,16,14,17,21.10
2021,04,16,14,18,21.20
2021,04,16,14,19,21.20
2021,04,16,14,20,21.30
2021,04,16,14,21,21.40
2021,04,16,14,22,21.40
2021,04,16,14,23,21.40
2021,04,16,14,24,21.40
2021,04,16,14,25,21.40
2021,04,16,14,26,21.40
2021,04,16,14,27,21.50
2021,04,16,14,28,21.60
2021,04,16,14,29,21.70
2021,04,16,14,30,21.70
2021,04,16,14,31,21.70
2021,04,16,14,32,21.70
2021,04,16,14,33,21.70
2021,04,16,14,34,21.60
2021,04,16,14,35,21.50
2021,04,16,14,36,21.50
2021,04,16,14,37,21.60
2021,04,16,14,38,21.60
2021,04,16,14,39,21.60
2021,04,16,14,40,21.70
2021,04,16,14,41,21.70
2021,04,16,14,42,21.70
2021,04,16,14,43,21.70
2021,04,16,14,44,21.60
2021,04,16,14,45,21.60
2021,04,16,14,46,21.60
2021,04,16,14,47,21.60
2021,04,16,14,48,21.70
2021,04,16,14,49,21.70
2021,04,16,14,50,21.80
2021,04,16,14,51,21.80
2021,04,16,14,52,21.90
2021,04,16,14,53,21.90
2021,04,16,14,54,21.80
2021,04,16,14,55,21.80
2021,04,16,14,56,21.80
2021,04,16,14,57,21.80
2021,04,16,14,58,21.90
2021,04,16,14,59,21.90
2021,04,16,15,00,21.90
2021,04,16,15,01,21.90
2021,04,16,15,02,21.90
2021,04,16,15,03,21.90
2021,04,16,15,04,21.90
2021,04,16,15,05,21.90
2021,04,16,15,06,21.90
2021,04,16,15,07,21.90
2021,04,16,15,08,21.90
2021,04,16,15,09,21.90
2021,04,16,15,10,21.90
2021,04,16,15,11,21.80
2021,04,16,15,12,21.80
2021,04,16,15,13,21.80
2021,04,16,15,14,21.80
2021,04,16,15,15,21.80
2021,04,16,15,16,21.90
2021,04,16,15,17,22.00
2021,04,16,15,18,22.10
2021,04,16,15,19,22.20
2021,04,16,15,20,22.20
2021,04,16,15,21,22.30
2021,04,16,15,22,22.30
2021,04,16,15,23,22.30
2021,04,16,15,24,22.30
2021,04,16,15,25,22.30
2021,04,16,15,26,22.30
2021,04,16,15,27,22.30
2021,04,16,15,28,22.40
2021,04,16,15,29,22.40
2021,04,16,15,30,22.50
2021,04,16,15,31,22.60
2021,04,16,15,32,22.60
2021,04,16,15,33,22.70
2021,04,16,15,34,22.70
2021,04,16,15,35,22.70
2021,04,16,15,36,22.70
2021,04,16,15,37,22.70
2021,04,16,15,38,22.70
2021,04,16,15,39,22.70
2021,04,16,15,40,22.70
2021,04,16,15,41,22.80
2021,04,16,15,42,22.80
2021,04,16,15,43,22.80
2021,04,16,15,44,22.80
2021,04,16,15,45,22.70
2021,04,16,15,46,22.60
2021,04,16,15,47,22.40
2021,04,16,15,48,22.30
2021,04,16,15,49,22.20
2021,04,16,15,50,22.20
2021,04,16,15,51,22.20
2021,04,16,15,52,22.20
2021,04,16,15,53,22.10
2021,04,16,15,54,22.10
2021,04,16,15,55,22.00
2021,04,16,15,56,21.90
2021,04,16,15,57,21.90
2021,04,16,15,58,21.90
2021,04,16,15,59,21.90
2021,04,16,16,00,22.00
2021,04,16,16,01,22.20
2021,04,16,16,02,22.30
2021,04,16,16,03,22.30
2021,04,16,16,04,22.40
2021,04,16,16,05,22.40
2021,04,16,16,06,22.40
2021,04,16,16,07,22.30
2021,04,16,16,08,22.30
2021,04,16,16,09,22.20
2021,04,16,16,10,22.10
2021,04,16,16,11,22.10
2021,04,16,16,12,22.10
2021,04,16,16,13,22.10
2021,04,16,16,14,22.20
2021,04,16,16,15,22.30
2021,04,16,16,16,22.40
2021,04,16,16,17,22.50
2021,04,16,16,18,22.60
2021,04,16,16,19,22.60
2021,04,16,16,20,22.70
2021,04,16,16,21,22.70
2021,04,16,16,22,22.70
2021,04,16,16,23,22.80
2021,04,16,16,24,22.80
2021,04,16,16,25,22.70
2021,04,16,16,26,22.70
2021,04,16,16,27,22.60
2021,04,16,16,28,22.50
2021,04,16,16,29,22.50
2021,04,16,16,30,22.50
2021,04,16,16,31,22.50
2021,04,16,16,32,22.60
2021,04,16,16,33,22.50
2021,04,16,16,34,22.30
2021,04,16,16,35,22.00
2021,04,16,16,36,21.50
2021,04,16,16,37,21.20
2021,04,16,16,38,20.90
2021,04,16,16,39,20.70
2021,04,16,16,40,20.60
2021,04,16,16,41,20.50
2021,04,16,16,42,20.40
2021,04,16,16,43,20.40
2021,04,16,16,44,20.30
2021,04,16,16,45,20.20
2021,04,16,16,46,20.20
2021,04,16,16,47,20.20
2021,04,16,16,48,20.20
2021,04,16,16,49,20.10
2021,04,16,16,50,20.00
2021,04,16,16,51,19.80
2021,04,16,16,52,19.70
2021,04,16,16,53,19.70
2021,04,16,16,54,19.60
2021,04,16,16,55,19.60
2021,04,16,16,56,19.50
2021,04,16,16,57,19.50
2021,04,16,16,58,19.40
2021,04,16,16,59,19.40
2021,04,16,17,00,19.30
2021,04,16,17,01,19.30
2021,04,16,17,02,19.20
2021,04,16,17,03,19.20
2021,04,16,17,04,19.10
2021,04,16,17,05,19.00
2021,04,16,17,06,19.00
2021,04,16,17,07,19.00
2021,04,16,17,08,18.90
2021,04,16,17,09,18.90
2021,04,16,17,10,18.90
2021,04,16,17,11,19.00
2021,04,16,17,12,19.00
2021,04,16,17,13,19.00
2021,04,16,17,14,19.00
2021,04,16,17,15,18.90
2021,04,16,17,16,18.90
2021,04,16,17,17,18.80
2021,04,16,17,18,18.80
2021,04,16,17,19,18.80
2021,04,16,17,20,18.90
2021,04,16,17,21,18.90
2021,04,16,17,22,18.90
2021,04,16,17,23,18.90
2021,04,16,17,24,18.90
2021,04,16,17,25,18.90
2021,04,16,17,26,18.90
2021,04,16,17,27,18.90
2021,04,16,17,28,18.90
2021,04,16,17,29,18.90
2021,04,16,17,30,18.90
2021,04,16,17,31,18.90
2021,04,16,17,32,18.90
2021,04,16,17,33,18.90
2021,04,16,17,34,18.90
2021,04,16,17,35,19.00
2021,04,16,17,36,19.10
2021,04,16,17,37,19.10
2021,04,16,17,38,19.20
2021,04,16,17,39,19.30